Regional Weather Roundup
Issued by NWS Albany, NY

Home | Current Version | Previous Version | Text Only | Print | Product List | Glossary On
Versions: 1 2 3 4 5 6 7 8 9 10 11 12 13 14 15 16 17 18 19 20 21 22 23 24 25 26 27
000
ASUS41 KALY 201610
RWRALY

NEW YORK STATE HOURLY WEATHER ROUNDUP
NATIONAL WEATHER SERVICE ALBANY NY
1200 PM EDT SUN APR 20 2014

NOTE: "FAIR" INDICATES FEW OR NO CLOUDS BELOW 12,000 FEET WITH NO
SIGNIFICANT WEATHER AND/OR NO OBSTRUCTIONS TO VISIBILITY.

NYZ032-033-038>043-046>054-057>066-NYZ062>081-201700-
EAST


CITY           SKY/WX    TMP DP  RH WIND       PRES   REMARKS
ALBANY         PTSUNNY   54  18  24 CALM      30.46F
GLENS FALLS    SUNNY     56  26  31 S9        30.45F
POUGHKEEPSIE   SUNNY     56  23  27 VRB3      30.46F
NEWBURGH       MOSUNNY   54  23  30 NE7       30.47F
MONTGOMERY     SUNNY     54  22  28 CALM      30.45F
WHITE PLAINS   FAIR      49  20  31 SE8G20    30.48F
ISLIP          PTSUNNY   54  22  28 E14G21    30.47S
NEW YORK CITY  PTSUNNY   52  27  38 NE12      30.49F
CENTRAL PARK   SUNNY     56  25  30 VRB3      30.51F
$$

NYZ005>009-017-018-044>046-055-056-201700-
CENTRAL


CITY           SKY/WX    TMP DP  RH WIND       PRES   REMARKS
FULTON         SUNNY     55  31  39 CALM      30.39F
SYRACUSE       PTSUNNY   57  27  31 VRB3      30.40F
ROME           SUNNY     54  24  31 SE7       30.43F
ELMIRA         SUNNY     58  28  32 NE5       30.37F
BINGHAMTON     MOSUNNY   55  27  34 SW7       30.38F
MONTICELLO     SUNNY     54  25  32 MISG      30.44F
$$

NYZ026>034-041>043-201700-
NORTH


CITY           SKY/WX    TMP DP  RH WIND       PRES   REMARKS
WATERTOWN      SUNNY     57  22  25 W8        30.40F
FORT DRUM      NOT AVBL
MASSENA        SUNNY     53  21  28 MISG      30.43F
SARANAC LAKE   SUNNY     49  13  23 VRB3      30.38F
PLATTSBURGH    SUNNY     47  20  34 SE9       30.45F
$$

NYZ001>004-010>016-019>021-201700-
WEST


CITY           SKY/WX    TMP DP  RH WIND       PRES   REMARKS
NIAGARA FALLS  MOSUNNY   58  27  30 E7        30.33F
BUFFALO        MOSUNNY   59  24  26 VRB3      30.33F
DUNKIRK        MOSUNNY   56  29  35 NW10      30.32F
JAMESTOWN      MOSUNNY   57  27  30 S9        30.33F
WELLSVILLE     SUNNY     58  20  22 SE9       30.35F
ROCHESTER      PTSUNNY   59  26  28 S7        30.35F
PENN YAN       SUNNY     56  27  32 SW10      30.37F
$$

             KEY
       WCI = WIND CHILL INDEX
       VSB = VISIBILITY
       HX  = HEAT INDEX
$$



USA.gov is the U.S. government's official web portal to all federal, state and local government web resources and services.